logo
Search for airport 
image banner adimage banner adimage banner ad
image banner ad

LGZALO - Zalogo / Preveza

Located in Preveza, Greece

ICAO - , IATA -

Data provided by Airmate  

General information

Coordinates: N39°7'28" E20°41'46"
Elevation is 285 feet MSL.
Magnetic variation is 5° East
View others Airports in Ioannina

Operational data

Special qualification required
Current time UTC:
Current local time:
Weather at : LGPZ - Preveza / Aktion ( 23 km )
METAR: LGPZ 152050Z 07003KT 9999 SCT015 15/14 Q1017 RMK SCT180 BLU
TAF: TAF LGPZ 151700Z 1518/1618 27010KT 9999 FEW018 BECMG 1518/1520 VRB05KT BECMG 1522/1524 06010KT PROB30 1600/1606 4000 BR SCT008 BECMG 1606/1608 FEW018 BKN070 BECMG 1610/1612 27010KT BECMG 1615/1617 VRB05KT
View NOTAMs / SUP AIP / TFR affecting this airport [VIEW]
Communications frequencies: [VIEW]

Runways:

RWY identifierQFULength (ft)Width (ft)SurfaceLDA (ft)
0552°105385DIRT
23232°105385DIRT

Airport contact information

Address: Preveza Greece

Satellite view of LGZALO